Tracking 35055 objects as of 19-Aug-2026
HD Live streaming from Space Station
objects crossing your sky now

MIDAS 3

Track MIDAS 3 now!
10-day predictions
MIDAS 3 is classified as:


NORAD ID: 163
Int'l Code: 1961-018A
Launch date: July 12, 1961
Source: United States (US)
Launch site: AIR FORCE WESTERN TEST RANGE (AFWTR)
Your satellite tracking list
Your tracking list is empty




NASA's NSSDC Master Catalog

Two Line Element Set (TLE):
1 00163U 61018A   26230.89851684 -.00000003  00000-0 -15507-2 0  9993
2 00163  91.1212 207.9433 0102833  86.8488 274.4145  8.91839361119607
Source of the keplerian elements: AFSPC